Weather History for Saginaw Browne, MI

Change the Weather History Date:

Tuesday, August 19, 2014

  Actual Average (KMBS) Record (KMBS)
Temperature  
Mean Temperature 70 °F 69 °F  
Max Temperature 77 °F 79 °F 85 °F (2013)
Min Temperature 62 °F 58 °F 47 °F (1997)
Degree Days  
Heating Degree Days 0    
Month to date heating degree days  
Since 1 June heating degree days  
Since 1 July heating degree days  
Cooling Degree Days 4    
Month to date cooling degree days  
Year to date cooling degree days  
Since 1 June cooling degree days  
Growing Degree Days 20 (Base 50)    
Moisture  
Dew Point 67 °F    
Average Humidity 96    
Maximum Humidity 100    
Minimum Humidity 73    
Precipitation  
Precipitation 0.00 in 0.10 in 0.73 in (2014)
Month to date precipitation 1.97  
Year to date precipitation 19.18  
Snow  
Snow 0.00 in - - ()
Month to date snowfall  
Since 1 June snowfall  
Since 1 July snowfall  
Snow Depth -    
Sea Level Pressure  
Sea Level Pressure 29.77 in    
Wind  
Wind Speed 6 mph (South)    
Max Wind Speed 14 mph    
Max Gust Speed 18 mph    
Visibility 9 miles    
Events Rain    
T = Trace of Precipitation, MM = Missing Value Source: NWS Daily Summary

Daily Weather History Graph

Daily Weather History Graph

Search for Another Location

Airport:

Trip Planner

Search our weather history database for the weather conditions in past years. The results will help you decide how hot, cold, wet, or windy it might be!

Date:

Astronomy

Aug. 19, 2014 Rise Set
Actual Time 6:44 AM EDT 8:32 PM EDT
Civil Twilight 6:14 AM EDT 9:02 PM EDT
Nautical Twilight 5:37 AM EDT 9:39 PM EDT
Astronomical Twilight 4:56 AM EDT 10:19 PM EDT
Moon 1:33 AM EDT (8/19) 4:31 PM EDT (8/19)
Length of Visible Light 14h 48m
Length of Day
13h 47m
Waning Crescent, 29% of the Moon is Illuminated
Aug 19
Waning Crescent
Aug 25
New
Sep 2
First Quarter
Sep 8
Full
Sep 15
Last Quarter

Hourly Weather History & Observations

Time (EDT) Temp. Dew Point Humidity Pressure Visibility Wind Dir Wind Speed Gust Speed Precip Events Conditions
12:14 AM 64.4 °F 64.4 °F 100% 29.83 in 10.0 mi SE 5.8 mph - N/A   Scattered Clouds
12:35 AM 64.4 °F 64.4 °F 100% 29.83 in 10.0 mi SE 4.6 mph - N/A   Scattered Clouds
12:55 AM 64.4 °F 64.4 °F 100% 29.83 in 10.0 mi SSE 5.8 mph - N/A   Mostly Cloudy
1:14 AM 64.4 °F 64.4 °F 100% 29.82 in 10.0 mi SSE 4.6 mph - N/A   Mostly Cloudy
1:35 AM 64.4 °F 64.4 °F 100% 29.83 in 10.0 mi SSE 4.6 mph - N/A   Mostly Cloudy
1:55 AM 64.4 °F 64.4 °F 100% 29.82 in 10.0 mi SSE 4.6 mph - N/A   Overcast
2:15 AM 64.4 °F 64.4 °F 100% 29.81 in 10.0 mi SSE 3.5 mph - N/A   Overcast
2:35 AM 64.4 °F 64.4 °F 100% 29.81 in 10.0 mi SSE 3.5 mph - N/A   Mostly Cloudy
2:55 AM 64.4 °F 64.4 °F 100% 29.79 in 10.0 mi SSE 5.8 mph - N/A   Overcast
3:15 AM 64.4 °F 64.4 °F 100% 29.79 in 10.0 mi SSE 5.8 mph - N/A   Overcast
3:35 AM 66.2 °F 64.4 °F 94% 29.78 in 10.0 mi SSE 8.1 mph - N/A   Overcast
3:55 AM 64.4 °F 64.4 °F 100% 29.78 in 10.0 mi SSE 8.1 mph - N/A   Mostly Cloudy
4:15 AM 64.4 °F 64.4 °F 100% 29.78 in 10.0 mi South 5.8 mph - N/A   Scattered Clouds
4:35 AM 64.4 °F 62.6 °F 94% 29.78 in 10.0 mi South 5.8 mph - N/A   Scattered Clouds
4:55 AM 64.4 °F 62.6 °F 94% 29.78 in 10.0 mi Calm Calm - N/A   Scattered Clouds
5:15 AM 64.4 °F 62.6 °F 94% 29.78 in 10.0 mi South 4.6 mph - N/A   Clear
5:35 AM 64.4 °F 62.6 °F 94% 29.78 in 10.0 mi South 4.6 mph - N/A   Clear
5:55 AM 62.6 °F 62.6 °F 100% 29.78 in 10.0 mi SSE 5.8 mph - N/A   Scattered Clouds
6:15 AM 62.6 °F 62.6 °F 100% 29.77 in 10.0 mi SSE 6.9 mph - N/A   Clear
6:35 AM 62.6 °F 62.6 °F 100% 29.78 in 10.0 mi South 3.5 mph - N/A   Clear
6:55 AM 62.6 °F 62.6 °F 100% 29.78 in 7.0 mi SSE 5.8 mph - N/A   Scattered Clouds
7:15 AM 62.6 °F 62.6 °F 100% 29.79 in 7.0 mi SSE 4.6 mph - N/A   Mostly Cloudy
7:35 AM 64.4 °F 64.4 °F 100% 29.79 in 10.0 mi South 4.6 mph - N/A   Scattered Clouds
7:54 AM 66.2 °F 64.4 °F 94% 29.79 in 10.0 mi South 5.8 mph - N/A   Scattered Clouds
8:15 AM 68.0 °F 66.2 °F 94% 29.79 in 10.0 mi South 8.1 mph - N/A   Mostly Cloudy
8:35 AM 68.0 °F 66.2 °F 94% 29.78 in 10.0 mi South 6.9 mph - N/A   Mostly Cloudy
8:54 AM 69.8 °F 66.2 °F 88% 29.78 in 10.0 mi South 9.2 mph - N/A   Scattered Clouds
9:15 AM 69.8 °F 64.4 °F 83% 29.78 in 10.0 mi South 11.5 mph - N/A   Scattered Clouds
9:35 AM 69.8 °F 62.6 °F 78% 29.77 in 10.0 mi South 8.1 mph - N/A   Mostly Cloudy
9:54 AM 73.4 °F 64.4 °F 73% 29.76 in 10.0 mi South 9.2 mph - N/A   Mostly Cloudy
10:15 AM 73.4 °F 64.4 °F 73% 29.76 in 10.0 mi South 11.5 mph - N/A   Overcast
10:35 AM 71.6 °F 68.0 °F 88% 29.76 in 10.0 mi South 6.9 mph - N/A Rain Light Rain
10:55 AM 71.6 °F 68.0 °F 88% 29.75 in 10.0 mi South 9.2 mph - N/A   Overcast
11:15 AM 71.6 °F 69.8 °F 94% 29.77 in 10.0 mi SSW 9.2 mph - N/A   Overcast
11:35 AM 73.4 °F 69.8 °F 88% 29.76 in 10.0 mi SSW 13.8 mph 18.4 mph N/A   Mostly Cloudy
11:55 AM 77.0 °F 69.8 °F 78% 29.75 in 10.0 mi SW 12.7 mph 17.3 mph N/A   Scattered Clouds
12:15 PM 75.2 °F 68.0 °F 78% 29.76 in 10.0 mi South 13.8 mph - N/A   Mostly Cloudy
12:35 PM 73.4 °F 69.8 °F 88% 29.76 in 10.0 mi SW 8.1 mph - N/A   Overcast
12:55 PM 73.4 °F 69.8 °F 88% 29.76 in 7.0 mi SSW 5.8 mph - N/A Rain Light Rain
1:15 PM 73.4 °F 69.8 °F 88% 29.76 in 10.0 mi West 4.6 mph - N/A   Overcast
1:34 PM 75.2 °F 69.8 °F 83% 29.76 in 10.0 mi WSW 4.6 mph - N/A   Mostly Cloudy
1:55 PM 73.4 °F 69.8 °F 88% 29.77 in 10.0 mi NW 3.5 mph - N/A   Overcast
2:15 PM 73.4 °F 71.6 °F 94% 29.76 in 5.0 mi Calm Calm - N/A Rain Rain
2:34 PM 71.6 °F 71.6 °F 100% 29.75 in 2.5 mi Calm Calm - N/A Rain Rain
2:55 PM 71.6 °F 71.6 °F 100% 29.77 in 3.0 mi Calm Calm - N/A Rain Rain
3:15 PM 71.6 °F 71.6 °F 100% 29.73 in 3.0 mi ESE 4.6 mph - N/A Rain Heavy Rain
3:34 PM 71.6 °F 71.6 °F 100% 29.74 in 5.0 mi Calm Calm - N/A Rain Light Rain
3:55 PM 71.6 °F 71.6 °F 100% 29.74 in 7.0 mi South 4.6 mph - N/A Rain Light Rain
4:15 PM 69.8 °F 69.8 °F 100% 29.74 in 2.0 mi South 3.5 mph - N/A Rain Heavy Rain
4:34 PM 69.8 °F 69.8 °F 100% 29.72 in 7.0 mi SSE 8.1 mph - N/A Rain Light Rain
4:55 PM 69.8 °F 69.8 °F 100% 29.73 in 10.0 mi SE 3.5 mph - N/A Rain Light Rain
5:15 PM 69.8 °F 69.8 °F 100% 29.72 in 10.0 mi SE 9.2 mph - N/A   Light Drizzle
5:34 PM 69.8 °F 69.8 °F 100% 29.73 in 10.0 mi South 5.8 mph - N/A   Mostly Cloudy
5:55 PM 69.8 °F 69.8 °F 100% 29.73 in 10.0 mi SSE 9.2 mph - N/A   Mostly Cloudy
6:34 PM 69.8 °F 69.8 °F 100% 29.73 in 10.0 mi SSW 8.1 mph - N/A   Mostly Cloudy
6:55 PM 69.8 °F 69.8 °F 100% 29.73 in 10.0 mi South 9.2 mph - N/A   Scattered Clouds
7:15 PM 69.8 °F 69.8 °F 100% 29.73 in 10.0 mi South 8.1 mph - N/A   Clear
7:34 PM 69.8 °F 69.8 °F 100% 29.73 in 10.0 mi South 8.1 mph - N/A   Scattered Clouds
7:55 PM 69.8 °F 69.8 °F 100% 29.73 in 10.0 mi South 8.1 mph - N/A   Scattered Clouds
8:15 PM 68.0 °F 68.0 °F 100% 29.73 in 10.0 mi SSW 9.2 mph - N/A   Clear
8:35 PM 68.0 °F 68.0 °F 100% 29.73 in 10.0 mi SSW 5.8 mph - N/A   Clear
8:55 PM 68.0 °F 68.0 °F 100% 29.74 in 10.0 mi South 5.8 mph - N/A   Clear
9:15 PM 66.2 °F 66.2 °F 100% 29.75 in 10.0 mi South 3.5 mph - N/A   Scattered Clouds
9:35 PM 66.2 °F 66.2 °F 100% 29.76 in 10.0 mi South 4.6 mph - N/A   Mostly Cloudy
9:55 PM 66.2 °F 66.2 °F 100% 29.76 in 10.0 mi South 4.6 mph - N/A   Overcast
10:55 PM 68.0 °F 68.0 °F 100% 29.77 in 10.0 mi SSW 8.1 mph - N/A   Overcast
11:15 PM 68.0 °F 68.0 °F 100% 29.76 in 10.0 mi SSW 8.1 mph - N/A   Overcast
11:35 PM 68.0 °F 68.0 °F 100% 29.76 in 10.0 mi SSW 6.9 mph - N/A   Overcast
11:55 PM 68.0 °F 68.0 °F 100% 29.76 in 10.0 mi SSW 4.6 mph - N/A   Overcast